Weather History for Osoyoos, BC

Change the Weather History Date:

Monday, July 15, 2013

  Actual Average Record
Temperature  
Mean Temperature 70 °F -  
Max Temperature 80 °F - - ()
Min Temperature 61 °F - - ()
Cooling Degree Days 6    
Growing Degree Days 20 (Base 50)    
Moisture  
Dew Point 43 °F    
Average Humidity 36    
Maximum Humidity 55    
Minimum Humidity 17    
Precipitation  
Precipitation 0.00 in - - ()
Sea Level Pressure  
Sea Level Pressure 30.02 in    
Wind  
Wind Speed 10 mph ()    
Max Wind Speed 15 mph    
Max Gust Speed 26 mph    
T = Trace of Precipitation, MM = Missing Value Source: Averaged Metar Reports

Daily Weather History Graph

Daily Weather History Graph

Search for Another Location

Airport:

Trip Planner

Search our weather history database for the weather conditions in past years. The results will help you decide how hot, cold, wet, or windy it might be!

Date:

Astronomy

Jul. 15, 2013 Rise Set
Actual Time 5:10 AM PDT 8:56 PM PDT
Civil Twilight 4:29 AM PDT 9:37 PM PDT
Nautical Twilight 3:33 AM PDT 10:32 PM PDT
Astronomical Twilight 2:09 AM PDT 11:55 PM PDT
Moon 1:19 PM PDT (7/15) 11:59 PM PDT (7/15)
Length of Visible Light 17h 07m
Length of Day
15h 46m
Waxing Crescent, 46% of the Moon is Illuminated
Jul 15
Waxing Crescent
Jul 15
First Quarter
Jul 22
Full
Jul 29
Last Quarter
Aug 6
New

Hourly Weather History & Observations

Time (PDT) Temp. Dew Point Humidity Pressure Visibility Wind Dir Wind Speed Gust Speed Precip Events Conditions
12:00 AM 70.7 °F 39.7 °F 32% 29.92 in - North 13.8 mph 23.0 mph N/A   Unknown
1:00 AM 67.5 °F 45.5 °F 45% 29.97 in - NNW 12.7 mph 21.9 mph N/A   Unknown
2:00 AM 67.1 °F 40.8 °F 38% 29.99 in - North 9.2 mph - N/A   Unknown
3:00 AM 65.1 °F 43.3 °F 45% 30.02 in - NNW 12.7 mph 23.0 mph N/A   Unknown
4:00 AM 63.3 °F 44.2 °F 50% 30.04 in - North 13.8 mph 21.9 mph N/A   Unknown
5:00 AM 62 °F 43 °F 39% 30.05 in - North 10.4 mph - -  
5:00 AM 61.7 °F 43.2 °F 51% 30.05 in - North 10.4 mph 18.4 mph N/A   Unknown
6:00 AM 61.7 °F 45.3 °F 55% 30.07 in - North 5.8 mph - N/A   Unknown
7:00 AM 62.8 °F 45.1 °F 53% 30.08 in - NNW 6.9 mph - N/A   Unknown
8:00 AM 65.3 °F 41.9 °F 42% 30.08 in - North 8.1 mph 21.9 mph N/A   Unknown
9:00 AM 67.3 °F 43.9 °F 43% 30.06 in - North 11.5 mph 20.7 mph N/A   Unknown
10:00 AM 69.3 °F 42.1 °F 37% 30.06 in - North 11.5 mph 19.6 mph N/A   Unknown
11:00 AM 72 °F 41 °F 22% 30.05 in - North 10.4 mph - -  
11:00 AM 71.8 °F 41.2 °F 33% 30.05 in - North 10.4 mph 19.6 mph N/A   Unknown
12:00 PM 74.3 °F 41.2 °F 30% 30.05 in - North 11.5 mph 20.7 mph N/A   Unknown
1:00 PM 76.8 °F 39.9 °F 27% 30.03 in - NNW 10.4 mph 17.3 mph N/A   Unknown
2:00 PM 77.9 °F 40.3 °F 26% 30.02 in - NNW 11.5 mph 20.7 mph N/A   Unknown
3:00 PM 78.3 °F 41.5 °F 27% 30.01 in - NW 11.5 mph 19.6 mph N/A   Unknown
4:00 PM 79.3 °F 41.0 °F 25% 30.00 in - NNW 15.0 mph 23.0 mph N/A   Unknown
5:00 PM 79 °F 42 °F 17% 29.99 in - NNW 13.8 mph - -  
5:00 PM 79.2 °F 41.9 °F 27% 29.99 in - NNW 13.8 mph 21.9 mph N/A   Unknown
6:00 PM 78.4 °F 45.1 °F 31% 29.97 in - NNW 13.8 mph 21.9 mph N/A   Unknown
7:00 PM 77.2 °F 44.2 °F 31% 29.97 in - NNW 15.0 mph 26.5 mph N/A   Unknown
8:00 PM 75.9 °F 43.5 °F 31% 29.99 in - NNW 12.7 mph 23.0 mph N/A   Unknown
9:00 PM 73.0 °F 47.1 °F 40% 30.01 in - NNW 8.1 mph - N/A   Unknown
10:00 PM 71.8 °F 44.6 °F 38% 30.02 in - NNW 6.9 mph - N/A   Unknown
11:00 PM 71 °F 45 °F 28% 30.04 in - NNW 6.9 mph - -  
11:00 PM 71.1 °F 45.0 °F 39% 30.04 in - NNW 6.9 mph - N/A   Unknown